CES6295 ZBAD-ZGSZ

Flight info

Callsign CES6295
Flight time 2h 39m
Altitude 32100
Route OMDEK6K OMDEK W37 OMBEB R473 NOLON W90 POU W7 SAREX SAREX3
Aircraft A321/M-SDE3FGHIRWYZ/EB1

Departure

Time 2026-04-26 05:19
Airport Beijing Daxing International Airport (ZBAD)

Arrival

Time 2026-04-26 07:58
Airport Shenzhen Bao'an International Airport (ZGSZ)
Time Latitude Longitude Altitude Speed Heading
2026-04-26 04:50 39.50717 116.41578 108 ft 0 kts 42°
2026-04-26 05:03 39.50699 116.41557 106 ft 4 kts 46°
2026-04-26 05:04 39.50682 116.41531 108 ft 4 kts 58°
2026-04-26 05:04 39.50672 116.41502 106 ft 4 kts 97°
2026-04-26 05:04 39.50675 116.41487 105 ft 0 kts 133°
2026-04-26 05:07 39.50664 116.41503 108 ft 6 kts 133°
2026-04-26 05:07 39.50637 116.41540 108 ft 5 kts 133°
2026-04-26 05:07 39.50614 116.41572 106 ft 4 kts 133°
2026-04-26 05:08 39.50584 116.41613 108 ft 7 kts 133°
2026-04-26 05:08 39.50548 116.41663 108 ft 11 kts 133°
2026-04-26 05:08 39.50487 116.41748 108 ft 13 kts 133°
2026-04-26 05:08 39.50408 116.41781 108 ft 12 kts 173°
2026-04-26 05:09 39.50329 116.41793 108 ft 11 kts 173°
2026-04-26 05:09 39.50255 116.41805 108 ft 10 kts 173°
2026-04-26 05:09 39.50193 116.41809 108 ft 8 kts 195°
2026-04-26 05:09 39.50162 116.41763 108 ft 7 kts 250°
2026-04-26 05:10 39.50154 116.41665 107 ft 12 kts 262°
2026-04-26 05:10 39.50144 116.41562 108 ft 11 kts 263°
2026-04-26 05:10 39.50136 116.41473 108 ft 9 kts 263°
2026-04-26 05:10 39.50128 116.41395 107 ft 8 kts 262°
2026-04-26 05:11 39.50123 116.41339 108 ft 0 kts 263°
2026-04-26 05:11 39.50117 116.41279 108 ft 14 kts 263°
2026-04-26 05:12 39.50102 116.41118 108 ft 19 kts 263°
2026-04-26 05:12 39.50087 116.40957 108 ft 17 kts 263°
2026-04-26 05:12 39.50073 116.40810 108 ft 16 kts 263°
2026-04-26 05:12 39.50060 116.40674 108 ft 15 kts 263°
2026-04-26 05:13 39.50047 116.40531 108 ft 18 kts 263°
2026-04-26 05:13 39.50033 116.40390 108 ft 14 kts 263°
2026-04-26 05:13 39.50022 116.40278 108 ft 11 kts 256°
2026-04-26 05:13 39.49966 116.40241 108 ft 9 kts 174°
2026-04-26 05:14 39.49888 116.40253 108 ft 16 kts 173°
2026-04-26 05:14 39.49774 116.40271 108 ft 16 kts 173°
2026-04-26 05:14 39.49665 116.40288 108 ft 15 kts 173°
2026-04-26 05:14 39.49561 116.40305 108 ft 15 kts 172°
2026-04-26 05:15 39.49462 116.40321 108 ft 14 kts 174°
2026-04-26 05:15 39.49368 116.40335 108 ft 13 kts 174°
2026-04-26 05:15 39.49280 116.40351 108 ft 12 kts 172°
2026-04-26 05:15 39.49198 116.40360 108 ft 12 kts 176°
2026-04-26 05:16 39.49107 116.40371 108 ft 15 kts 174°
2026-04-26 05:16 39.49006 116.40384 108 ft 14 kts 173°
2026-04-26 05:16 39.48918 116.40398 108 ft 11 kts 173°
2026-04-26 05:16 39.48870 116.40351 109 ft 10 kts 250°
2026-04-26 05:17 39.48858 116.40231 110 ft 14 kts 263°
2026-04-26 05:17 39.48849 116.40129 111 ft 9 kts 264°
2026-04-26 05:17 39.48874 116.40075 111 ft 7 kts 334°
2026-04-26 05:17 39.48919 116.40066 110 ft 6 kts 354°
2026-04-26 05:18 39.48990 116.40055 110 ft 20 kts 352°
2026-04-26 05:18 39.49366 116.39996 105 ft 89 kts 353°
2026-04-26 05:18 39.50173 116.39867 111 ft 142 kts 353°
2026-04-26 05:18 39.51304 116.39702 181 ft 175 kts 358°
2026-04-26 05:19 39.52445 116.39526 1040 ft 162 kts 351°
2026-04-26 05:19 39.53610 116.39318 1537 ft 173 kts 352°
2026-04-26 05:19 39.54794 116.39133 2134 ft 171 kts 351°
2026-04-26 05:19 39.55984 116.38938 2730 ft 173 kts 349°
2026-04-26 05:20 39.57166 116.38735 3197 ft 175 kts 349°
2026-04-26 05:20 39.58428 116.38516 3528 ft 193 kts 348°
2026-04-26 05:20 39.59843 116.38272 3790 ft 215 kts 348°
2026-04-26 05:20 39.61394 116.38012 3978 ft 237 kts 349°
2026-04-26 05:21 39.63116 116.37729 4178 ft 262 kts 350°
2026-04-26 05:21 39.64955 116.37276 4672 ft 273 kts 336°
2026-04-26 05:21 39.66558 116.35991 5423 ft 270 kts 312°
2026-04-26 05:21 39.67594 116.34002 6279 ft 267 kts 289°
2026-04-26 05:22 39.67907 116.31646 7060 ft 267 kts 268°
2026-04-26 05:22 39.67761 116.29242 7844 ft 269 kts 265°
2026-04-26 05:22 39.67602 116.26812 8622 ft 271 kts 266°
2026-04-26 05:22 39.67446 116.24366 9365 ft 274 kts 266°
2026-04-26 05:23 39.67292 116.21916 10057 ft 277 kts 266°
2026-04-26 05:23 39.67132 116.19334 10291 ft 298 kts 266°
2026-04-26 05:23 39.66959 116.16518 10421 ft 320 kts 266°
2026-04-26 05:23 39.66780 116.13599 10648 ft 336 kts 266°
2026-04-26 05:24 39.66591 116.10544 11184 ft 342 kts 266°
2026-04-26 05:24 39.66399 116.07460 11817 ft 345 kts 266°
2026-04-26 05:24 39.66201 116.04337 12473 ft 349 kts 266°
2026-04-26 05:24 39.65755 116.01234 13083 ft 354 kts 250°
2026-04-26 05:25 39.64446 115.98514 13672 ft 362 kts 228°
2026-04-26 05:25 39.62358 115.96655 14223 ft 372 kts 204°
2026-04-26 05:25 39.59818 115.95903 14754 ft 379 kts 189°
2026-04-26 05:25 39.57165 115.95779 15302 ft 385 kts 180°
2026-04-26 05:26 39.54483 115.96050 15845 ft 389 kts 175°
2026-04-26 05:26 39.51786 115.96531 16384 ft 392 kts 173°
2026-04-26 05:26 39.49077 115.97116 16897 ft 396 kts 173°
2026-04-26 05:26 39.46350 115.97701 17405 ft 398 kts 173°
2026-04-26 05:27 39.43603 115.98236 17896 ft 401 kts 174°
2026-04-26 05:27 39.40831 115.98711 18339 ft 403 kts 175°
2026-04-26 05:27 39.38036 115.99136 18734 ft 405 kts 176°
2026-04-26 05:27 39.35225 115.99532 19112 ft 407 kts 176°
2026-04-26 05:28 39.32401 115.99923 19466 ft 410 kts 176°
2026-04-26 05:28 39.29564 116.00321 19830 ft 412 kts 176°
2026-04-26 05:28 39.26692 116.00732 20222 ft 415 kts 176°
2026-04-26 05:28 39.23819 116.01151 20613 ft 417 kts 176°
2026-04-26 05:29 39.20930 116.01576 20995 ft 419 kts 176°
2026-04-26 05:29 39.18061 116.01999 21379 ft 422 kts 176°
2026-04-26 05:29 39.15141 116.02426 21756 ft 424 kts 177°
2026-04-26 05:29 39.12194 116.02839 22134 ft 427 kts 177°
2026-04-26 05:30 39.09243 116.03238 22515 ft 429 kts 178°
2026-04-26 05:30 39.06259 116.03636 22893 ft 432 kts 178°
2026-04-26 05:30 39.03255 116.04033 23264 ft 435 kts 178°
2026-04-26 05:30 39.00234 116.04434 23623 ft 438 kts 178°
2026-04-26 05:31 38.97199 116.04837 23924 ft 440 kts 178°
2026-04-26 05:31 38.94135 116.05245 24222 ft 443 kts 178°
2026-04-26 05:31 38.91056 116.05659 24512 ft 446 kts 178°
2026-04-26 05:31 38.87962 116.06075 24808 ft 449 kts 178°
2026-04-26 05:32 38.84852 116.06492 25090 ft 451 kts 178°
2026-04-26 05:32 38.81724 116.06912 25379 ft 454 kts 178°
2026-04-26 05:32 38.78566 116.07334 25660 ft 456 kts 178°
2026-04-26 05:32 38.75400 116.07755 25950 ft 459 kts 178°
2026-04-26 05:33 38.72219 116.08178 26228 ft 461 kts 178°
2026-04-26 05:33 38.69017 116.08536 26494 ft 462 kts 182°
2026-04-26 05:33 38.65825 116.08373 26752 ft 459 kts 191°
2026-04-26 05:33 38.62694 116.07606 27029 ft 456 kts 200°
2026-04-26 05:34 38.59696 116.06301 27297 ft 455 kts 205°
2026-04-26 05:34 38.56730 116.04870 27560 ft 458 kts 205°
2026-04-26 05:34 38.53737 116.03438 27831 ft 460 kts 205°
2026-04-26 05:34 38.50733 116.02009 28079 ft 462 kts 205°
2026-04-26 05:35 38.47712 116.00574 28329 ft 464 kts 205°
2026-04-26 05:35 38.44675 115.99133 28557 ft 466 kts 205°
2026-04-26 05:35 38.41667 115.97708 28772 ft 468 kts 205°
2026-04-26 05:35 38.38569 115.96239 28990 ft 470 kts 205°
2026-04-26 05:36 38.35556 115.94806 29185 ft 472 kts 205°
2026-04-26 05:36 38.32435 115.93322 29378 ft 473 kts 205°
2026-04-26 05:36 38.29333 115.91910 29627 ft 475 kts 201°
2026-04-26 05:36 38.26089 115.90969 29897 ft 481 kts 193°
2026-04-26 05:37 38.22765 115.90435 30121 ft 482 kts 192°
2026-04-26 05:37 38.19437 115.89922 30335 ft 482 kts 192°
2026-04-26 05:37 38.16143 115.89415 30544 ft 483 kts 192°
2026-04-26 05:37 38.12811 115.88899 30762 ft 483 kts 192°
2026-04-26 05:38 38.09482 115.88378 30980 ft 483 kts 192°
2026-04-26 05:38 38.06143 115.87851 31194 ft 483 kts 192°
2026-04-26 05:38 38.02810 115.87322 31421 ft 483 kts 192°
2026-04-26 05:38 37.99472 115.86796 31644 ft 484 kts 193°
2026-04-26 05:39 37.96133 115.86274 31862 ft 484 kts 193°
2026-04-26 05:39 37.92791 115.85757 31976 ft 482 kts 193°
2026-04-26 05:39 37.86191 115.84739 31999 ft 474 kts 193°
2026-04-26 05:40 37.79667 115.83665 32001 ft 473 kts 194°
2026-04-26 05:40 37.73162 115.82458 32002 ft 468 kts 200°
2026-04-26 05:41 37.67142 115.79696 32002 ft 457 kts 212°
2026-04-26 05:41 37.61350 115.76368 31998 ft 457 kts 212°
2026-04-26 05:42 37.55550 115.73066 31987 ft 457 kts 212°
2026-04-26 05:42 37.49784 115.69801 31983 ft 457 kts 212°
2026-04-26 05:43 37.43946 115.66492 31978 ft 457 kts 212°
2026-04-26 05:43 37.38173 115.63143 31971 ft 456 kts 213°
2026-04-26 05:44 37.32463 115.59684 31977 ft 456 kts 214°
2026-04-26 05:44 37.26751 115.56208 31974 ft 456 kts 214°
2026-04-26 05:45 37.21997 115.53346 31982 ft 456 kts 213°
2026-04-26 05:45 37.15321 115.49381 31974 ft 457 kts 213°
2026-04-26 05:46 37.09586 115.45973 31976 ft 456 kts 214°
2026-04-26 05:46 37.04765 115.43098 31976 ft 456 kts 214°
2026-04-26 05:47 36.99075 115.39715 31980 ft 456 kts 214°
2026-04-26 05:47 36.93329 115.36314 31982 ft 456 kts 214°
2026-04-26 05:48 36.87578 115.32935 31983 ft 457 kts 213°
2026-04-26 05:48 36.81805 115.29607 31981 ft 457 kts 213°
2026-04-26 05:49 36.73146 115.24620 31981 ft 457 kts 213°
2026-04-26 05:50 36.67382 115.21283 31984 ft 457 kts 214°
2026-04-26 05:50 36.61630 115.17906 31977 ft 456 kts 214°
2026-04-26 05:51 36.55885 115.14541 31976 ft 456 kts 214°
2026-04-26 05:51 36.50135 115.11196 31976 ft 456 kts 214°
2026-04-26 05:52 36.44387 115.07865 31981 ft 456 kts 214°
2026-04-26 05:52 36.38637 115.04538 31976 ft 457 kts 212°
2026-04-26 05:53 36.32386 115.02427 31961 ft 478 kts 193°
2026-04-26 05:53 36.25770 115.01786 31965 ft 480 kts 192°
2026-04-26 05:54 36.19107 115.01144 31951 ft 480 kts 193°
2026-04-26 05:54 36.12465 115.00487 31953 ft 479 kts 193°
2026-04-26 05:55 36.05823 114.99831 31957 ft 478 kts 193°
2026-04-26 05:55 35.99200 114.99164 31955 ft 478 kts 193°
2026-04-26 05:56 35.92574 114.98503 31951 ft 478 kts 193°
2026-04-26 05:56 35.85950 114.97860 31953 ft 478 kts 193°
2026-04-26 05:57 35.79326 114.97211 31966 ft 477 kts 193°
2026-04-26 05:57 35.72704 114.96558 31961 ft 477 kts 193°
2026-04-26 05:58 35.66093 114.95917 31961 ft 477 kts 193°
2026-04-26 05:58 35.59482 114.95265 31960 ft 476 kts 193°
2026-04-26 05:59 35.52876 114.94626 31964 ft 476 kts 193°
2026-04-26 05:59 35.46265 114.93989 31968 ft 476 kts 193°
2026-04-26 06:00 35.39676 114.93350 31972 ft 475 kts 193°
2026-04-26 06:00 35.33074 114.92707 31975 ft 475 kts 192°
2026-04-26 06:01 35.26486 114.92068 31974 ft 475 kts 193°
2026-04-26 06:01 35.19903 114.91422 31973 ft 475 kts 193°
2026-04-26 06:02 35.13323 114.90769 31978 ft 474 kts 193°
2026-04-26 06:02 35.06747 114.90110 31976 ft 474 kts 193°
2026-04-26 06:03 35.00186 114.89423 31967 ft 473 kts 193°
2026-04-26 06:03 34.93644 114.88733 31966 ft 473 kts 193°
2026-04-26 06:04 34.87088 114.88052 31967 ft 473 kts 193°
2026-04-26 06:04 34.80522 114.87386 31963 ft 473 kts 193°
2026-04-26 06:05 34.73964 114.86713 31956 ft 473 kts 193°
2026-04-26 06:05 34.67403 114.86041 31956 ft 473 kts 193°
2026-04-26 06:06 34.60845 114.85369 31956 ft 473 kts 193°
2026-04-26 06:06 34.54286 114.84701 31952 ft 473 kts 193°
2026-04-26 06:07 34.47731 114.84030 31950 ft 473 kts 193°
2026-04-26 06:07 34.41168 114.83361 31953 ft 473 kts 193°
2026-04-26 06:08 34.34595 114.82695 31951 ft 474 kts 193°
2026-04-26 06:08 34.28025 114.82025 31962 ft 474 kts 193°
2026-04-26 06:09 34.21458 114.81367 31961 ft 474 kts 193°
2026-04-26 06:09 34.14887 114.80711 31962 ft 474 kts 193°
2026-04-26 06:10 34.08322 114.80075 31962 ft 474 kts 192°
2026-04-26 06:10 34.01745 114.79446 31966 ft 474 kts 192°
2026-04-26 06:11 33.95175 114.78823 31970 ft 473 kts 192°
2026-04-26 06:11 33.88611 114.78190 31971 ft 473 kts 192°
2026-04-26 06:12 33.82040 114.77561 31974 ft 473 kts 192°
2026-04-26 06:12 33.75486 114.76912 31978 ft 473 kts 193°
2026-04-26 06:13 33.68935 114.76247 31978 ft 473 kts 192°
2026-04-26 06:13 33.62363 114.75624 31957 ft 473 kts 192°
2026-04-26 06:14 33.55805 114.75022 31959 ft 473 kts 192°
2026-04-26 06:14 33.49302 114.74358 31958 ft 472 kts 193°
2026-04-26 06:15 33.42722 114.73673 31965 ft 472 kts 192°
2026-04-26 06:15 33.36193 114.73045 31962 ft 472 kts 192°
2026-04-26 06:16 33.29661 114.72428 31964 ft 471 kts 192°
2026-04-26 06:16 33.23122 114.71804 31954 ft 471 kts 192°
2026-04-26 06:17 33.16603 114.71173 31955 ft 470 kts 192°
2026-04-26 06:17 33.10114 114.70526 31956 ft 469 kts 193°
2026-04-26 06:18 33.03605 114.69875 31956 ft 469 kts 193°
2026-04-26 06:18 32.97100 114.69228 31955 ft 469 kts 193°
2026-04-26 06:19 32.90605 114.68592 31954 ft 468 kts 193°
2026-04-26 06:19 32.84117 114.67967 31951 ft 468 kts 193°
2026-04-26 06:20 32.77637 114.67365 31947 ft 468 kts 192°
2026-04-26 06:20 32.71143 114.66762 31946 ft 467 kts 193°
2026-04-26 06:21 32.64665 114.66155 31944 ft 467 kts 193°
2026-04-26 06:21 32.58213 114.65547 31939 ft 467 kts 193°
2026-04-26 06:22 32.51738 114.64929 31943 ft 467 kts 192°
2026-04-26 06:22 32.45262 114.64319 31940 ft 467 kts 192°
2026-04-26 06:23 32.38786 114.63709 31942 ft 467 kts 192°
2026-04-26 06:23 32.32310 114.63098 31943 ft 467 kts 192°
2026-04-26 06:24 32.25835 114.62463 31942 ft 466 kts 192°
2026-04-26 06:24 32.19355 114.61829 31943 ft 467 kts 192°
2026-04-26 06:25 32.12884 114.61202 31948 ft 467 kts 192°
2026-04-26 06:25 32.06445 114.60581 31948 ft 467 kts 192°
2026-04-26 06:26 31.99973 114.59946 31949 ft 467 kts 192°
2026-04-26 06:26 31.93493 114.59315 31954 ft 467 kts 192°
2026-04-26 06:27 31.87017 114.58690 31961 ft 467 kts 192°
2026-04-26 06:27 31.80535 114.58078 31967 ft 467 kts 192°
2026-04-26 06:28 31.74073 114.57451 31969 ft 466 kts 192°
2026-04-26 06:28 31.67592 114.56819 31976 ft 466 kts 192°
2026-04-26 06:29 31.61128 114.56198 31982 ft 466 kts 192°
2026-04-26 06:29 31.54664 114.55584 31985 ft 466 kts 192°
2026-04-26 06:30 31.48210 114.54973 31981 ft 465 kts 192°
2026-04-26 06:30 31.41768 114.54362 31990 ft 464 kts 192°
2026-04-26 06:31 31.35326 114.53741 31983 ft 464 kts 192°
2026-04-26 06:31 31.28941 114.53124 31983 ft 463 kts 192°
2026-04-26 06:32 31.22748 114.51659 31986 ft 446 kts 208°
2026-04-26 06:32 31.17167 114.48687 31984 ft 440 kts 213°
2026-04-26 06:33 31.12519 114.46131 31979 ft 440 kts 212°
2026-04-26 06:33 31.06973 114.43108 31977 ft 440 kts 212°
2026-04-26 06:34 31.01462 114.40106 31977 ft 440 kts 212°
2026-04-26 06:34 30.95923 114.37079 31972 ft 440 kts 212°
2026-04-26 06:35 30.90378 114.34048 31970 ft 440 kts 212°
2026-04-26 06:35 30.84826 114.31041 31966 ft 440 kts 212°
2026-04-26 06:36 30.79272 114.28039 31965 ft 440 kts 212°
2026-04-26 06:36 30.73719 114.25010 31965 ft 441 kts 212°
2026-04-26 06:37 30.68167 114.21990 31967 ft 441 kts 212°
2026-04-26 06:37 30.62594 114.18971 31968 ft 442 kts 212°
2026-04-26 06:38 30.57028 114.15956 31971 ft 442 kts 212°
2026-04-26 06:38 30.51441 114.12938 31971 ft 443 kts 212°
2026-04-26 06:39 30.45857 114.09917 31974 ft 443 kts 212°
2026-04-26 06:39 30.40261 114.06897 31969 ft 444 kts 212°
2026-04-26 06:40 30.34662 114.03882 31975 ft 444 kts 212°
2026-04-26 06:40 30.29052 114.00865 31970 ft 445 kts 212°
2026-04-26 06:41 30.23438 113.97854 31976 ft 445 kts 212°
2026-04-26 06:41 30.17811 113.94842 31975 ft 445 kts 211°
2026-04-26 06:42 30.12188 113.91825 31971 ft 445 kts 211°
2026-04-26 06:42 30.06568 113.88817 31971 ft 445 kts 211°
2026-04-26 06:43 30.00976 113.85832 31976 ft 446 kts 211°
2026-04-26 06:43 29.95352 113.82833 31985 ft 446 kts 211°
2026-04-26 06:44 29.89699 113.79854 31983 ft 448 kts 208°
2026-04-26 06:44 29.83556 113.78198 31983 ft 463 kts 189°
2026-04-26 06:45 29.77110 113.77768 31983 ft 464 kts 189°
2026-04-26 06:45 29.70650 113.77323 31986 ft 464 kts 189°
2026-04-26 06:46 29.64199 113.76872 31990 ft 465 kts 189°
2026-04-26 06:46 29.57785 113.76418 31992 ft 465 kts 189°
2026-04-26 06:47 29.51312 113.75962 31995 ft 465 kts 189°
2026-04-26 06:47 29.44844 113.75522 31998 ft 465 kts 189°
2026-04-26 06:48 29.38385 113.75077 32005 ft 465 kts 189°
2026-04-26 06:48 29.31915 113.74628 32009 ft 465 kts 189°
2026-04-26 06:49 29.25449 113.74178 32012 ft 465 kts 189°
2026-04-26 06:49 29.19001 113.73960 32023 ft 468 kts 185°
2026-04-26 06:50 29.12470 113.74214 32023 ft 470 kts 182°
2026-04-26 06:50 29.05934 113.74564 32023 ft 469 kts 183°
2026-04-26 06:51 28.99416 113.74805 32022 ft 469 kts 184°
2026-04-26 06:51 28.89642 113.75046 32037 ft 468 kts 184°
2026-04-26 06:52 28.83137 113.75223 32040 ft 468 kts 184°
2026-04-26 06:52 28.76622 113.75415 32047 ft 468 kts 184°
2026-04-26 06:53 28.70177 113.75233 32049 ft 463 kts 189°
2026-04-26 06:53 28.63736 113.74748 32053 ft 462 kts 188°
2026-04-26 06:54 28.57312 113.74283 32057 ft 461 kts 188°
2026-04-26 06:54 28.50919 113.73821 32059 ft 460 kts 188°
2026-04-26 06:55 28.44530 113.73352 32056 ft 459 kts 188°
2026-04-26 06:55 28.38159 113.72881 32053 ft 458 kts 188°
2026-04-26 06:56 28.31805 113.72413 32047 ft 457 kts 188°
2026-04-26 06:56 28.25457 113.71950 32055 ft 457 kts 188°
2026-04-26 06:57 28.19120 113.71491 32057 ft 456 kts 188°
2026-04-26 06:57 28.12826 113.71035 32055 ft 455 kts 188°
2026-04-26 06:58 28.06520 113.70521 32055 ft 454 kts 189°
2026-04-26 06:58 28.00225 113.69945 32046 ft 453 kts 189°
2026-04-26 06:59 27.93929 113.69362 32044 ft 453 kts 189°
2026-04-26 06:59 27.87646 113.68793 32038 ft 453 kts 189°
2026-04-26 07:00 27.81355 113.68232 32036 ft 453 kts 189°
2026-04-26 07:00 27.75068 113.67673 32031 ft 453 kts 189°
2026-04-26 07:01 27.68795 113.67115 32028 ft 453 kts 189°
2026-04-26 07:01 27.62497 113.66590 32022 ft 454 kts 187°
2026-04-26 07:02 27.56168 113.66393 32025 ft 456 kts 185°
2026-04-26 07:02 27.49824 113.66362 32012 ft 456 kts 185°
2026-04-26 07:03 27.43471 113.66284 32016 ft 456 kts 186°
2026-04-26 07:03 27.37123 113.66139 32020 ft 456 kts 186°
2026-04-26 07:04 27.30776 113.65978 32023 ft 457 kts 186°
2026-04-26 07:04 27.24417 113.65826 32031 ft 458 kts 186°
2026-04-26 07:05 27.18081 113.65887 32025 ft 462 kts 177°
2026-04-26 07:05 27.11761 113.67520 32037 ft 467 kts 169°
2026-04-26 07:06 27.05483 113.69392 32026 ft 467 kts 169°
2026-04-26 07:06 26.99195 113.71235 32021 ft 467 kts 169°
2026-04-26 07:07 26.92901 113.73076 32015 ft 467 kts 169°
2026-04-26 07:07 26.86615 113.74924 32018 ft 467 kts 169°
2026-04-26 07:08 26.80329 113.76783 32021 ft 467 kts 169°
2026-04-26 07:08 26.74040 113.78633 32015 ft 467 kts 169°
2026-04-26 07:09 26.67770 113.80543 32027 ft 468 kts 168°
2026-04-26 07:09 26.61511 113.82531 32017 ft 468 kts 168°
2026-04-26 07:11 26.45837 113.87434 32032 ft 467 kts 169°
2026-04-26 07:11 26.39581 113.89220 32035 ft 466 kts 169°
2026-04-26 07:12 26.33292 113.90992 32045 ft 466 kts 169°
2026-04-26 07:12 26.27019 113.92796 32043 ft 466 kts 169°
2026-04-26 07:13 26.21081 113.94515 32039 ft 466 kts 169°
2026-04-26 07:13 26.14811 113.96325 32040 ft 466 kts 169°
2026-04-26 07:14 26.08529 113.98135 32041 ft 465 kts 169°
2026-04-26 07:14 26.02264 113.99930 32037 ft 465 kts 169°
2026-04-26 07:15 25.95991 114.01756 32034 ft 466 kts 169°
2026-04-26 07:15 25.89739 114.03625 32036 ft 466 kts 168°
2026-04-26 07:16 25.83483 114.05503 32037 ft 466 kts 168°
2026-04-26 07:16 25.77226 114.07356 32038 ft 465 kts 168°
2026-04-26 07:17 25.71005 114.09187 32038 ft 465 kts 168°
2026-04-26 07:17 25.64744 114.11023 32040 ft 466 kts 168°
2026-04-26 07:18 25.58482 114.12871 32036 ft 466 kts 168°
2026-04-26 07:18 25.52227 114.14721 32034 ft 466 kts 168°
2026-04-26 07:19 25.45961 114.16561 32041 ft 466 kts 168°
2026-04-26 07:19 25.39636 114.17900 32036 ft 457 kts 185°
2026-04-26 07:20 25.34586 114.16694 32028 ft 444 kts 206°
2026-04-26 07:20 25.28852 114.14168 32031 ft 445 kts 206°
2026-04-26 07:21 25.23092 114.11629 32042 ft 446 kts 206°
2026-04-26 07:21 25.17320 114.09104 32033 ft 446 kts 205°
2026-04-26 07:22 25.11538 114.06589 32033 ft 446 kts 205°
2026-04-26 07:22 25.05761 114.04073 32033 ft 446 kts 205°
2026-04-26 07:23 24.99984 114.01556 32038 ft 446 kts 205°
2026-04-26 07:23 24.94206 113.99031 32028 ft 445 kts 205°
2026-04-26 07:23 24.91368 113.97793 31450 ft 444 kts 205°
2026-04-26 07:24 24.88463 113.96525 30686 ft 445 kts 205°
2026-04-26 07:24 24.85584 113.95270 29944 ft 445 kts 204°
2026-04-26 07:24 24.82732 113.94032 29065 ft 446 kts 204°
2026-04-26 07:24 24.79838 113.92778 28309 ft 445 kts 204°
2026-04-26 07:25 24.76976 113.91540 27691 ft 440 kts 204°
2026-04-26 07:25 24.74140 113.90312 27066 ft 436 kts 204°
2026-04-26 07:25 24.71331 113.89095 26453 ft 431 kts 204°
2026-04-26 07:25 24.68552 113.87890 25829 ft 427 kts 204°
2026-04-26 07:26 24.65797 113.86694 25243 ft 424 kts 204°
2026-04-26 07:26 24.63062 113.85507 24664 ft 420 kts 204°
2026-04-26 07:26 24.60356 113.84333 24079 ft 416 kts 204°
2026-04-26 07:26 24.57681 113.83173 23507 ft 412 kts 204°
2026-04-26 07:27 24.55022 113.82024 22799 ft 409 kts 204°
2026-04-26 07:27 24.52387 113.80887 22115 ft 404 kts 204°
2026-04-26 07:27 24.49785 113.79765 21430 ft 400 kts 204°
2026-04-26 07:27 24.47208 113.78652 20777 ft 396 kts 204°
2026-04-26 07:28 24.44658 113.77548 20130 ft 392 kts 204°
2026-04-26 07:28 24.42133 113.76454 19762 ft 390 kts 203°
2026-04-26 07:28 24.39602 113.75358 19630 ft 391 kts 203°
2026-04-26 07:28 24.37069 113.74265 19657 ft 392 kts 203°
2026-04-26 07:29 24.34531 113.73173 19668 ft 392 kts 203°
2026-04-26 07:29 24.31990 113.72082 19664 ft 392 kts 203°
2026-04-26 07:29 24.29447 113.70988 19664 ft 392 kts 203°
2026-04-26 07:29 24.26905 113.69892 19665 ft 392 kts 203°
2026-04-26 07:30 24.24369 113.68802 19661 ft 392 kts 203°
2026-04-26 07:30 24.21834 113.67715 19659 ft 392 kts 203°
2026-04-26 07:30 24.19324 113.66639 19662 ft 392 kts 203°
2026-04-26 07:30 24.16785 113.65549 19667 ft 392 kts 203°
2026-04-26 07:31 24.14241 113.64455 19655 ft 392 kts 203°
2026-04-26 07:31 24.11712 113.63367 19425 ft 391 kts 203°
2026-04-26 07:31 24.09182 113.62278 19196 ft 389 kts 203°
2026-04-26 07:31 24.06668 113.61200 18969 ft 388 kts 203°
2026-04-26 07:32 24.04157 113.60126 18735 ft 387 kts 202°
2026-04-26 07:32 24.01650 113.59056 18507 ft 386 kts 202°
2026-04-26 07:32 23.99162 113.57990 18287 ft 385 kts 203°
2026-04-26 07:32 23.96672 113.56920 18032 ft 383 kts 203°
2026-04-26 07:33 23.94195 113.55858 17771 ft 382 kts 202°
2026-04-26 07:33 23.91730 113.54802 17636 ft 380 kts 203°
2026-04-26 07:33 23.89255 113.53743 17663 ft 381 kts 202°
2026-04-26 07:33 23.86789 113.52689 17666 ft 381 kts 202°
2026-04-26 07:34 23.84313 113.51633 17661 ft 381 kts 202°
2026-04-26 07:34 23.81849 113.50583 17661 ft 381 kts 202°
2026-04-26 07:34 23.79453 113.49559 17658 ft 381 kts 203°
2026-04-26 07:34 23.76988 113.48504 17667 ft 381 kts 202°
2026-04-26 07:35 23.74514 113.47446 17663 ft 382 kts 202°
2026-04-26 07:35 23.72042 113.46392 17662 ft 382 kts 202°
2026-04-26 07:35 23.69558 113.45335 17667 ft 382 kts 202°
2026-04-26 07:35 23.67083 113.44282 17655 ft 382 kts 202°
2026-04-26 07:36 23.64642 113.43243 17651 ft 382 kts 202°
2026-04-26 07:36 23.62166 113.42189 17661 ft 382 kts 203°
2026-04-26 07:36 23.59692 113.41136 17649 ft 382 kts 202°
2026-04-26 07:36 23.57220 113.40082 17650 ft 382 kts 202°
2026-04-26 07:37 23.54748 113.39030 17648 ft 382 kts 203°
2026-04-26 07:37 23.52266 113.37987 17644 ft 382 kts 202°
2026-04-26 07:37 23.49764 113.37005 17642 ft 382 kts 201°
2026-04-26 07:37 23.47248 113.36063 17643 ft 382 kts 200°
2026-04-26 07:38 23.44724 113.35138 17640 ft 383 kts 200°
2026-04-26 07:38 23.42202 113.34214 17663 ft 383 kts 200°
2026-04-26 07:38 23.39671 113.33296 17644 ft 383 kts 198°
2026-04-26 07:38 23.37029 113.32893 17542 ft 387 kts 180°
2026-04-26 07:39 23.34383 113.33389 17287 ft 388 kts 165°
2026-04-26 07:39 23.31799 113.34233 17031 ft 387 kts 165°
2026-04-26 07:39 23.29250 113.35076 16537 ft 381 kts 165°
2026-04-26 07:39 23.26720 113.35911 15974 ft 378 kts 165°
2026-04-26 07:40 23.24242 113.36719 15783 ft 364 kts 165°
2026-04-26 07:40 23.21863 113.37491 15655 ft 350 kts 165°
2026-04-26 07:40 23.19575 113.38232 15535 ft 337 kts 165°
2026-04-26 07:40 23.17370 113.38945 15339 ft 326 kts 165°
2026-04-26 07:41 23.15191 113.39646 14862 ft 326 kts 165°
2026-04-26 07:41 23.13009 113.40346 14394 ft 326 kts 165°
2026-04-26 07:41 23.10836 113.41042 13938 ft 326 kts 165°
2026-04-26 07:41 23.08778 113.41700 13384 ft 326 kts 165°
2026-04-26 07:42 23.06637 113.42387 12746 ft 314 kts 165°
2026-04-26 07:42 23.04576 113.43049 12126 ft 306 kts 165°
2026-04-26 07:42 23.02541 113.43702 11516 ft 303 kts 165°
2026-04-26 07:42 23.00534 113.44347 10957 ft 301 kts 165°
2026-04-26 07:43 22.98537 113.44990 10778 ft 300 kts 164°
2026-04-26 07:43 22.96536 113.45637 10734 ft 299 kts 164°
2026-04-26 07:43 22.94539 113.46282 10742 ft 300 kts 164°
2026-04-26 07:43 22.92532 113.46927 10742 ft 300 kts 164°
2026-04-26 07:44 22.90558 113.47562 10749 ft 300 kts 164°
2026-04-26 07:44 22.88537 113.48114 10743 ft 299 kts 173°
2026-04-26 07:44 22.86459 113.48222 10588 ft 299 kts 185°
2026-04-26 07:44 22.84400 113.48062 10364 ft 297 kts 185°
2026-04-26 07:45 22.82338 113.47905 10125 ft 296 kts 185°
2026-04-26 07:45 22.80289 113.47749 9881 ft 296 kts 185°
2026-04-26 07:45 22.78238 113.47594 9614 ft 294 kts 185°
2026-04-26 07:45 22.76200 113.47440 9379 ft 293 kts 185°
2026-04-26 07:46 22.74174 113.47289 9131 ft 291 kts 185°
2026-04-26 07:46 22.72142 113.47139 8869 ft 290 kts 185°
2026-04-26 07:46 22.70135 113.46990 8610 ft 288 kts 185°
2026-04-26 07:46 22.68139 113.46842 8358 ft 287 kts 185°
2026-04-26 07:47 22.66157 113.46694 8102 ft 285 kts 185°
2026-04-26 07:47 22.64197 113.46692 7857 ft 284 kts 170°
2026-04-26 07:47 22.62404 113.47536 7604 ft 284 kts 142°
2026-04-26 07:47 22.61175 113.49179 7382 ft 280 kts 115°
2026-04-26 07:48 22.60763 113.51179 7257 ft 269 kts 92°
2026-04-26 07:48 22.60713 113.53145 7119 ft 250 kts 92°
2026-04-26 07:48 22.60987 113.54910 7027 ft 235 kts 64°
2026-04-26 07:48 22.62038 113.56213 6879 ft 232 kts 31°
2026-04-26 07:49 22.63552 113.56702 6699 ft 229 kts 358°
2026-04-26 07:49 22.65145 113.56605 6518 ft 229 kts 357°
2026-04-26 07:49 22.66728 113.56631 6323 ft 225 kts
2026-04-26 07:50 22.69689 113.56797 5995 ft 206 kts
2026-04-26 07:50 22.71110 113.56873 5840 ft 204 kts
2026-04-26 07:50 22.72515 113.56939 5558 ft 201 kts
2026-04-26 07:50 22.73901 113.57095 5198 ft 201 kts 17°
2026-04-26 07:51 22.75044 113.57941 4887 ft 200 kts 45°
2026-04-26 07:51 22.75936 113.59087 4560 ft 199 kts 51°
2026-04-26 07:51 22.76778 113.60256 4221 ft 198 kts 51°
2026-04-26 07:51 22.77633 113.61451 3890 ft 197 kts 51°
2026-04-26 07:52 22.78469 113.62615 3563 ft 195 kts 51°
2026-04-26 07:52 22.79293 113.63752 3248 ft 193 kts 51°
2026-04-26 07:52 22.80123 113.64889 2944 ft 192 kts 51°
2026-04-26 07:52 22.80947 113.66017 2625 ft 191 kts 53°
2026-04-26 07:53 22.81409 113.67327 2355 ft 187 kts 91°
2026-04-26 07:53 22.81076 113.68684 2330 ft 189 kts 118°
2026-04-26 07:53 22.80213 113.69744 2335 ft 189 kts 145°
2026-04-26 07:53 22.79056 113.70418 2337 ft 189 kts 153°
2026-04-26 07:54 22.77880 113.71060 2338 ft 189 kts 153°
2026-04-26 07:54 22.76748 113.71681 2308 ft 176 kts 153°
2026-04-26 07:54 22.75675 113.72270 2128 ft 171 kts 153°
2026-04-26 07:54 22.74623 113.72847 1919 ft 168 kts 153°
2026-04-26 07:55 22.73587 113.73416 1711 ft 166 kts 153°
2026-04-26 07:55 22.72579 113.73970 1500 ft 156 kts 153°
2026-04-26 07:55 22.71646 113.74482 1304 ft 146 kts 153°
2026-04-26 07:55 22.70751 113.74974 1113 ft 143 kts 153°
2026-04-26 07:56 22.69874 113.75455 941 ft 140 kts 155°
2026-04-26 07:56 22.69009 113.75927 727 ft 139 kts 155°
2026-04-26 07:56 22.68153 113.76393 572 ft 137 kts 155°
2026-04-26 07:56 22.67301 113.76868 351 ft 137 kts 154°
2026-04-26 07:57 22.66449 113.77341 201 ft 137 kts 155°
2026-04-26 07:57 22.65595 113.77798 33 ft 137 kts 155°
2026-04-26 07:57 22.65053 113.78086 16 ft 116 kts 152°
2026-04-26 07:57 22.64522 113.78389 16 ft 61 kts 153°
2026-04-26 07:58 22.64207 113.78592 16 ft 33 kts 136°
2026-04-26 07:58 22.64114 113.78730 16 ft 12 kts 122°
2026-04-26 07:58 22.64128 113.78805 16 ft 10 kts 30°
2026-04-26 07:58 22.64195 113.78786 16 ft 14 kts 334°
2026-04-26 07:59 22.64317 113.78719 16 ft 24 kts 333°
2026-04-26 07:59 22.64464 113.78638 16 ft 24 kts 333°
2026-04-26 07:59 22.64611 113.78557 16 ft 24 kts 333°
2026-04-26 07:59 22.64759 113.78479 16 ft 24 kts 334°
2026-04-26 08:00 22.64905 113.78397 16 ft 24 kts 332°
2026-04-26 08:00 22.65051 113.78318 16 ft 23 kts 334°
2026-04-26 08:00 22.65197 113.78239 16 ft 23 kts 333°
2026-04-26 08:00 22.65340 113.78161 16 ft 23 kts 333°
2026-04-26 08:01 22.65484 113.78081 16 ft 23 kts 333°
2026-04-26 08:01 22.65628 113.78002 16 ft 23 kts 333°
2026-04-26 08:01 22.65771 113.77922 16 ft 23 kts 332°
2026-04-26 08:01 22.65901 113.77850 16 ft 15 kts 333°
2026-04-26 08:02 22.65989 113.77802 16 ft 13 kts 355°
2026-04-26 08:02 22.66080 113.77822 16 ft 15 kts 13°
2026-04-26 08:02 22.66179 113.77885 17 ft 16 kts 78°
2026-04-26 08:02 22.66228 113.77987 16 ft 15 kts 57°
2026-04-26 08:03 22.66288 113.78107 16 ft 22 kts 64°
2026-04-26 08:03 22.66347 113.78237 16 ft 18 kts 64°
2026-04-26 08:03 22.66342 113.78318 16 ft 7 kts 157°
2026-04-26 08:03 22.66268 113.78361 16 ft 17 kts 152°
2026-04-26 08:04 22.66165 113.78417 16 ft 17 kts 153°
2026-04-26 08:04 22.66060 113.78474 16 ft 17 kts 153°
2026-04-26 08:04 22.65954 113.78532 16 ft 17 kts 153°
2026-04-26 08:04 22.65847 113.78591 16 ft 17 kts 153°
2026-04-26 08:05 22.65739 113.78650 16 ft 18 kts 153°
2026-04-26 08:05 22.65628 113.78711 17 ft 18 kts 153°
2026-04-26 08:05 22.65516 113.78772 16 ft 18 kts 153°
2026-04-26 08:05 22.65403 113.78835 16 ft 18 kts 153°
2026-04-26 08:06 22.65287 113.78896 16 ft 19 kts 154°
2026-04-26 08:06 22.65172 113.78962 16 ft 19 kts 150°
2026-04-26 08:06 22.65042 113.79033 16 ft 25 kts 153°
2026-04-26 08:06 22.64924 113.79098 16 ft 29 kts 153°
2026-04-26 08:07 22.64681 113.79232 16 ft 30 kts 153°
2026-04-26 08:07 22.64556 113.79300 16 ft 28 kts 153°
2026-04-26 08:07 22.64407 113.79382 16 ft 23 kts 153°
2026-04-26 08:07 22.64261 113.79461 16 ft 24 kts 153°
2026-04-26 08:08 22.64116 113.79541 16 ft 24 kts 153°
2026-04-26 08:08 22.63966 113.79623 16 ft 24 kts 153°
2026-04-26 08:08 22.63814 113.79706 16 ft 25 kts 153°
2026-04-26 08:08 22.63677 113.79782 16 ft 20 kts 152°
2026-04-26 08:09 22.63550 113.79852 16 ft 21 kts 153°
2026-04-26 08:09 22.63419 113.79924 16 ft 21 kts 153°
2026-04-26 08:09 22.63292 113.79993 16 ft 16 kts 153°
2026-04-26 08:09 22.63241 113.80063 16 ft 12 kts 84°
2026-04-26 08:10 22.63274 113.80142 16 ft 11 kts 64°
2026-04-26 08:10 22.63297 113.80192 16 ft 2 kts 63°
2026-04-26 08:10 22.63316 113.80232 16 ft 7 kts 62°
2026-04-26 08:10 22.63311 113.80269 16 ft 5 kts 124°
2026-04-26 08:11 22.63286 113.80286 16 ft 3 kts 153°
2026-04-26 08:11 22.63279 113.80290 16 ft 1 kts 153°
2026-04-26 08:11 22.63276 113.80291 16 ft 0 kts 153°